Weather in Chernyy Klyuch

Russia / Samara Oblast     54°19′41″N   51°50′38″E
В апреле 2022 года жителям России запретили посещать сайт meteo.paraplan.net по решению Генеральной прокуратуры. Аудитория сайта уменьшилась в 10 раз. Владельцы сайта не видят смысла в поддержке погодного сервера в таких условиях. Сайт будет закрыт в октябре.
temp.,
°C
wind,
m/s
gust,
m/s
humid.,
%
clouds,
%
prec.,
mm/h
press.,
hPa
HPBL,
m
3 october, mon
mon301:00+13sse7155673 0.0 1017499
04:00+13sse71555100 0.1 1018503
07:00+12sse7155439 0.0 1018483
10:00+14sse8144343 0.0 1020651
13:00+17s9123512 0.0 1020962
16:00+17s8123532 0.0 10211021
19:00+14sse714395 0.0 1022549
22:00+12sse7163798 0.0 1023550
4 october, tue
tue401:00+11sse61440100 0.0 1024414
04:00+10se51338100 0.0 1025360
07:00+10se61334100 0.0 1026366
10:00+12sse61330100 0.0 1027506
13:00+14sse61127100 0.0 1027603
16:00+15sse61026100 0.0 1027927
19:00+11sse51229100 0.0 1028335
22:00+11sse61427100 0.0 1027472
5 october, wed
wed501:00+11sse51328100 0.0 1028469
04:00+8sse4959100 0.3 1029355
07:00+8ese51062100 0.1 1027330
10:00+10sse51334100 0.1 1026484
13:00+11sse71432100 0.0 1025535
16:00+11sse71453100 0.0 1025637
19:00+10s71349100 0.0 1025642
22:00+8s71367100 0.3 1024668
6 october, thu
thu601:00+8s61390100 2.8 1022624
04:00+8s41083100 3.4 1020447
07:00+8sse2681100 0.3 1019273
10:00+7sse3794100 3.1 1019250
13:00+10s4586100 1.2 1017525
16:00+10s468174 1.3 1016570
19:00+10w258692 1.0 1016235
22:00+8wnw268489 1.3 1016229
7 october, fri
fri701:00+5w37888 0.0 1016156
04:00+4wsw368999 0.0 1016151
07:00+6wsw36859 0.1 1016239
10:00+8sw576598 0.1 1015630
13:00+7ssw51088100 0.8 1014554
16:00+9wsw51197100 1.8 1013614
19:00+10w51191100 0.2 1014527
22:00+10w71384100 0.4 1015724